Regional Weather Roundup
Issued by NWS

Home | Current Version | Previous Version | Graphics & Text | Print | Product List | Glossary On
Versions: 1 2 3 4 5 6 7 8 9 10 11 12 13 14 15 16 17 18 19 20 21 22 23 24 25 26 27 28 29 30 31 32 33 34 35 36 37 38 39 40 41 42 43 44 45 46 47 48 49 50
000
ASUS43 KMPX 200610
RWRMN
WEATHER ROUNDUP FOR MINNESOTA
NATIONAL WEATHER SERVICE TWIN CITIES/CHANHASSEN MN
100 AM CDT SAT SEP 20 2014


NOTE: "FAIR" INDICATES FEW OR NO CLOUDS BELOW 12,000 FEET WITH NO
SIGNIFICANT WEATHER AND/OR OBSTRUCTIONS TO VISIBILITY. N/A MEANS
CURRENT SKY AND/OR WEATHER CONDITIONS ARE NOT AVAILABLE.

MNZ060>063-068>070-200700-
   Twin Cities Metro

CITY           SKY/WX    TMP DP  RH WIND       PRES   REMARKS
TWIN CITIES    CLOUDY    73  67  81 SW8       29.68R
6HR MIN TEMP:  69; 6HR MAX TEMP:  74; 6HR PCP: TRACE;

ST PAUL        CLOUDY    70  67  90 E7        29.68R
CRYSTAL        MOCLDY    72  66  81 SW8       29.66S
BLAINE         MOCLDY    72  70  94 S8        29.67S
LAKEVILLE      CLOUDY    70  66  88 SW3       29.69F
EDEN PRAIRIE   CLOUDY    71  67  87 SW8       29.67F
6HR MIN TEMP:  68; 6HR MAX TEMP:  73; 6HR PCP: TRACE;

SOUTH ST PAUL  CLOUDY    73  66  80 SW7       29.68F
LAKE ELMO      FAIR      70  68  94 SW8       29.69S
$$
MNZ001>005-007-008-013>017-022>024-027-028-200700-
   Northwest Minnesota

CITY           SKY/WX    TMP DP  RH WIND       PRES   REMARKS
BEMIDJI        CLEAR     62  60  94 NW14      29.61R
HALLOCK        CLOUDY    57  55  94 NW8       29.70R
ROSEAU         CLOUDY    55  50  82 NW8       29.66R
WARROAD        CLOUDY    55  52  88 NW14      29.64R
THIEF RVR FALL CLOUDY    61  55  82 NW15      29.68R
CROOKSTON      MOCLDY    59  55  88 NW13G22   29.70R
FOSSTON        CLOUDY    61  57  88 NW9G16    29.68R
DETROIT LAKES  MOCLDY    61  59  94 NW15G21   29.69R
MOORHEAD       PTCLDY    63  61  94 N13       29.70R
PARK RAPIDS    PTCLDY    64  58  80 NW13      29.62R
MAHNOMEN       CLOUDY    60  59  94 NW13G21   29.68R
$$
MNZ006-009>011-018-025>026-200700-
   North Central Minnesota

CITY           SKY/WX    TMP DP  RH WIND       PRES   REMARKS
BAUDETTE       CLOUDY    59  57  93 NW13      29.60R
FLAG ISLAND    CLOUDY    55  54  94 NW17G24   29.61R
INTL FALLS     PTCLDY    57  56  96 W6        29.56S
6HR MIN TEMP:  56; 6HR MAX TEMP:  64; 6HR PCP:  0.84;

WASKISH        PTCLDY    59  57  94 CALM      29.61R
BIG FORK       MOCLDY    64  63  94 W3        29.58S FOG
LONGVILLE      PTCLDY    63  61  94 W3        29.58F
GRAND RAPIDS   PTCLDY    64  61  88 SW6       29.58S
CRANE LAKE     MOCLDY    57  57 100 S3        29.57F FOG
ORR            CLOUDY    61  59  94 CALM      29.54F FOG
COOK           CLOUDY    63  63 100 CALM      29.58S FOG
WALKER         FAIR      64  60  87 W9        29.60R
$$
MNZ012-019>021-037-200700-
   Northeast Minnesota

CITY           SKY/WX    TMP DP  RH WIND       PRES   REMARKS
DULUTH         CLOUDY    64  61  90 S8        29.61S FOG
6HR MIN TEMP:  63; 6HR MAX TEMP:  65;

ELY            CLOUDY    61  59  94 W5        29.59R
HIBBING        CLOUDY    65  62  90 CALM      29.58F FOG
EVELETH        FOG       63  61  94 SW3       29.59F VSB 1
DULUTH HARBOR  CLOUDY    61  59  94 S5        29.61R FOG
TWO HARBORS    HAZE      61  55  82 S3        29.58F VSB 3/4
SILVER BAY     CLOUDY    59  59 100 CALM      29.57F FOG
GRAND MARAIS     N/A     54  53  97 CALM      29.59S
G MARAIS ARPRT CLOUDY    57  55  94 S3        29.62S FOG
$$
MNZ029>031-032-039>041-046>048-054>057-064-200700-
   West Central Minnesota

CITY           SKY/WX    TMP DP  RH WIND       PRES   REMARKS
FERGUS FALLS   CLEAR     64  54  68 N14G28    29.68R
WHEATON        PTCLDY    64  54  68 W13       29.71R
MORRIS         MOCLDY    64  55  72 W9        29.67R
ALEXANDRIA     PTCLDY    65  57  75 W9        29.67R
ELBOW LAKE     FAIR      64  55  75 NW9       29.68R
WADENA         PTCLDY    64  57  77 W6        29.64R
GLENWOOD       PTCLDY    63  61  94 W6        29.69R
APPLETON       PTCLDY    63  57  82 W7        29.69R
BENSON         PTCLDY    63  57  82 NW6       29.69R
ORTONVILLE     MOCLDY    68  54  60 W8        29.70R
MADISON        PTCLDY    66  61  82 W7        29.71R
WILLMAR        FAIR      66  61  82 W9        29.71S
$$
MNZ033>034-036-042>043-049>051-058-059-200700-
   Central Minnesota

CITY           SKY/WX    TMP DP  RH WIND       PRES   REMARKS
ST CLOUD       PTCLDY    62  59  90 SW3       29.65F FOG
6HR MIN TEMP:  57; 6HR MAX TEMP:  70;

SAUK CENTRE    FAIR      64  60  87 W8        29.67R
PAYNESVILLE    CLEAR     63  62  99 S8        29.69R
AITKIN         HAZE      55  48  76 CALM      29.59R VSB 1/4
PINE RIVER     PTCLDY    64  61  88 W6        29.64R
BRAINERD       PTCLDY    58  58 100 SW7       29.61R FOG
STAPLES        PTCLDY    64  59  82 W9        29.62R
LONG PRAIRIE   FAIR      64  59  82 SW7       29.66R
LITTLE FALLS     N/A     59  55  88 CALM      29.64R FOG
LITCHFIELD     PTCLDY    70  66  88 W7        29.70S
BUFFALO        PTCLDY    66  64  92 S3        29.68S
MAPLE LAKE     PTCLDY    70  65  86 SW5       29.68S
$$
MNZ037-044-045-052-053-200700-
   East Central Minnesota

CITY           SKY/WX    TMP DP  RH WIND       PRES   REMARKS
PRINCETON      PTCLDY    64  63  94 S5        29.65R
MORA             N/A     57  55  94 S3        29.65S FOG
CAMBRIDGE      PTCLDY    64  57  77 S5        29.63F HAZE
RUSH CITY      PTCLDY    62  61  95 CALM      29.65F
MOOSE LAKE     FOG       59  57  94 SW3       29.60R VSB 1/4
HINCKLEY       FOG       54  54 100 S5        29.64R VSB 1/2
CLOQUET        DRZL/FOG  61  59  94 CALM      29.62R VSB 1/4
MCGREGOR       CLOUDY    55  55 100 CALM      29.61R VSB 1/4
$$
MNZ071>073-080-081-089-090-097-098-200700-
   Southwest Minnesota

CITY           SKY/WX    TMP DP  RH WIND       PRES   REMARKS
MONTEVIDEO     PTCLDY    66  63  88 W5        29.71R
GRANITE FALLS  PTCLDY    65  63  92 W7        29.73R
CANBY          CLEAR     67  59  77 W6        29.74R
MARSHALL       PTCLDY    68  61  77 W12       29.73R
REDWOOD FALLS  MOCLDY    73  64  73 W10       29.70R
OLIVIA         PTCLDY    68  63  83 W7        29.70R
PIPESTONE      PTCLDY    70  61  73 NW5       29.77R
WINDOM         CLOUDY    70  64  83 SW7       29.74F
WORTHINGTON    CLOUDY    70  63  78 SW7       29.77S
JACKSON        CLOUDY    68  63  83 SW8       29.75F
TRACY          MOCLDY    69  65  87 CALM      29.73S
SLAYTON        MOCLDY    66  61  82 CALM      29.77S
$$
MNZ065>067-074>077-082>085-091>093-200700-
   South Central Minnesota

CITY           SKY/WX    TMP DP  RH WIND       PRES   REMARKS
MANKATO        CLOUDY    68  61  77 S10       29.72R
NEW ULM        CLOUDY    70  68  94 SW8       29.71S
ST JAMES       CLOUDY    70  64  83 S6        29.73F
FAIRMONT       CLOUDY    68  57  68 SW8       29.75R
GLENCOE        CLOUDY    69  64  84 S7        29.68S
FARIBAULT      CLOUDY    72  61  68 S8        29.73S
OWATONNA       CLOUDY    66  61  82 S13       29.75R
WASECA         CLOUDY    63  57  82 S7        29.77R
ALBERT LEA     CLOUDY    64  64 100 S9        29.78R
$$
MNZ078>079-086>088-094>096-200700-
   Southeast Minnesota

CITY           SKY/WX    TMP DP  RH WIND       PRES   REMARKS
ROCHESTER      LGT RAIN  67  65  93 SW15      29.75F
6HR MIN TEMP:  67; 6HR MAX TEMP:  70; 6HR PCP:  0.10;

RED WING       CLOUDY    72  66  83 SW5       29.69F
STANTON        CLOUDY    71  64  79 SW13      29.69F
DODGE CENTER   LGT RAIN  66  64  94 SW16      29.76F
WINONA         TSTM      70  64  83 SW12      29.75S
AUSTIN         TSTM      64  63  94 S13       29.79R
PRESTON        TSTM      65  65 100 SW13      29.80S
$$
ABBREVIATIONS USED IN REMARKS
   TC - TEMPERATURES IN CELSIUS
  WCI - WIND CHILL INDEX
   HX - HEAT INDEX
  VSB - VISIBILITY
$$



USA.gov is the U.S. government's official web portal to all federal, state and local government web resources and services.